TimeCST,TemperatureF,Dew PointF,Humidity,Sea Level PressureIn,VisibilityMPH,Wind Direction,Wind SpeedMPH,Gust SpeedMPH,PrecipitationIn,Events,Conditions,WindDirDegrees,DateUTC
12:05 AM,8.6,6.8,92,30.33,2.5,Calm,Calm,-,N/A,,Partly Cloudy,0,2013-03-02 06:05:00
12:12 AM,8.6,6.8,92,30.33,5.0,Calm,Calm,-,N/A,,Partly Cloudy,0,2013-03-02 06:12:00
12:55 AM,6.8,3.2,85,30.34,7.0,Calm,Calm,-,N/A,,Clear,0,2013-03-02 06:55:00
1:29 AM,5.0,3.2,92,30.34,5.0,Calm,Calm,-,N/A,,Partly Cloudy,0,2013-03-02 07:29:00
1:51 AM,5.0,1.4,85,30.33,6.0,Calm,Calm,-,N/A,,Mostly Cloudy,0,2013-03-02 07:51:00
1:55 AM,5.0,1.9,87,30.41,6.0,Calm,Calm,-,N/A,,Mostly Cloudy,0,2013-03-02 07:55:00
2:29 AM,6.8,3.2,85,30.33,1.8,SW,3.5,-,N/A,,Overcast,230,2013-03-02 08:29:00
2:55 AM,7.0,5.0,92,30.38,3.0,South,3.5,-,N/A,,Overcast,170,2013-03-02 08:55:00
3:55 AM,9.0,6.1,88,30.38,7.0,SSW,4.6,-,N/A,,Overcast,210,2013-03-02 09:55:00
4:55 AM,12.0,10.0,92,30.35,8.0,SSE,3.5,-,N/A,,Overcast,150,2013-03-02 10:55:00
5:55 AM,12.9,10.0,88,30.34,8.0,SSE,6.9,-,N/A,,Overcast,150,2013-03-02 11:55:00
6:55 AM,15.1,12.0,88,30.32,8.0,SSE,6.9,-,N/A,,Overcast,160,2013-03-02 12:55:00
7:55 AM,16.0,14.0,92,30.30,7.0,SSE,9.2,-,N/A,,Overcast,150,2013-03-02 13:55:00
8:55 AM,19.0,16.0,88,30.30,10.0,SSE,9.2,-,N/A,,Overcast,160,2013-03-02 14:55:00
9:55 AM,19.9,17.1,89,30.29,10.0,SSE,9.2,-,N/A,,Overcast,150,2013-03-02 15:55:00
10:55 AM,21.9,17.1,82,30.25,10.0,SE,13.8,20.7,N/A,,Overcast,140,2013-03-02 16:55:00
11:55 AM,25.0,18.0,75,30.24,10.0,SSE,17.3,24.2,N/A,,Overcast,150,2013-03-02 17:55:00
12:55 PM,27.0,19.0,72,30.22,10.0,SSE,18.4,25.3,N/A,,Overcast,150,2013-03-02 18:55:00
1:55 PM,28.0,19.0,69,30.17,10.0,SSE,15.0,24.2,N/A,,Partly Cloudy,150,2013-03-02 19:55:00
2:55 PM,28.9,19.9,69,30.17,10.0,SSE,15.0,19.6,N/A,,Scattered Clouds,160,2013-03-02 20:55:00
3:55 PM,28.9,21.0,72,30.15,10.0,SSE,13.8,-,N/A,,Clear,160,2013-03-02 21:55:00
4:55 PM,28.0,19.9,72,30.14,10.0,SSE,12.7,-,N/A,,Clear,160,2013-03-02 22:55:00
5:55 PM,27.0,19.9,75,30.13,10.0,SSE,10.4,-,N/A,,Clear,150,2013-03-02 23:55:00
6:55 PM,27.0,19.9,75,30.13,10.0,SSE,11.5,-,N/A,,Clear,150,2013-03-03 00:55:00
7:55 PM,27.0,21.0,78,30.11,10.0,SSE,8.1,-,N/A,,Clear,150,2013-03-03 01:55:00
8:55 PM,26.1,19.9,78,30.09,10.0,SSE,8.1,-,N/A,,Clear,150,2013-03-03 02:55:00
9:55 PM,25.0,19.9,81,30.08,10.0,SSE,8.1,-,N/A,,Clear,150,2013-03-03 03:55:00
10:55 PM,24.1,19.9,84,30.07,10.0,SE,6.9,-,N/A,,Clear,140,2013-03-03 04:55:00
11:55 PM,21.9,19.0,89,30.05,10.0,SE,4.6,-,N/A,,Clear,140,2013-03-03 05:55:00